[[{"header":{"parameterUnit":"m.s-1","parameterCategory":2,"la1":30.2991,"la2":30.254,"lo1":-89.0895,"lo2":-89.0444,"dx":0.0017,"dy":0.0017,"nx":28,"ny":28,"refTime":"2023-01-02T15:00:00:Z","depth":"0","parameterNumber":2,"parameterNumberName":"U-component_of_CURRENTS"},"data":[0,0,0,0,0,0,0,0,0,0,0,0,0,0,0,0,0,0,0,0,0,0,0,0,0,0,0,0,0,0,0,0,0,0,0,0,0,0,0,0,0,0,0,0,0,0,0,0,0,0,0,0,0,0,0,0,0,0,0.2669,0.267,0,0.2695,0.2695,0.2695,0.2686,0.2685,0.2685,0.2685,0.2685,0.2686,0.2686,0,0,0,0,0,0,0,0,0,0,0,0,0,0.2623,0.2623,0.2669,0.267,0.267,0.2695,0.2695,0.2695,0.2686,0.2685,0.2685,0.2684,0.2685,0.2686,0.2686,0,0,0,0,0,0,0,0,0,0,0,0,0,0.2643,0.2624,0.2669,0.2671,0.2671,0.2695,0.2695,0.2695,0.2686,0.2685,0.2685,0.2684,0.2685,0.2686,0.2686,0.27,0,0,0.2688,0.2688,0,0,0,0,0,0,0,0,0.2641,0.2644,0.267,0.2671,0.2671,0.2689,0.2679,0.2696,0.2686,0.2678,0.2685,0.2684,0.2686,0.2687,0.2689,0.27,0.27,0.2688,0.2688,0.2688,0.2688,0,0,0,0,0,0,0,0.264,0.2643,0.2677,0.267,0.2671,0.2674,0.2675,0.2682,0.2682,0.2678,0.2678,0.2685,0.2686,0.2689,0.2689,0.27,0.2688,0.2688,0.2689,0.2689,0.2746,0.2747,0,0,0,0,0,0,0.2642,0.2642,0.2676,0.2678,0.2658,0.2675,0.2677,0.2682,0.2683,0.2683,0.2686,0.2685,0.2688,0.2689,0.2689,0.2722,0.2688,0.2689,0.2689,0.2745,0.2746,0.2748,0,0,0,0,0,0,0.2641,0.2645,0.2675,0.2662,0.2667,0.2677,0.2682,0.2682,0.2688,0.2689,0.2688,0.2691,0.2688,0.2689,0.2704,0.2721,0.2689,0.2689,0.2743,0.2745,0.2747,0.2777,0,0,0,0,0,0,0.264,0.2644,0.2647,0.2663,0.2668,0.2694,0.2682,0.2683,0.2694,0.2693,0.2694,0.2693,0.2688,0.2703,0.2704,0.2721,0.269,0.2742,0.2744,0.2746,0.2774,0.278,0.2784,0,0,0,0,0,0.2638,0.2643,0.2646,0.2651,0.2671,0.2695,0.2698,0.2701,0.2695,0.2703,0.2705,0.2693,0.2718,0.2704,0.2705,0.2723,0.2741,0.2743,0.2746,0.2772,0.2779,0.2784,0,0,0,0,0,0,0.2619,0.2644,0.2647,0.2658,0.2679,0.2695,0.2704,0.2706,0.2714,0.2712,0.2706,0.2706,0.2729,0.2725,0.2709,0.2748,0.2729,0.2732,0.2748,0.2754,0.2759,0.2769,0.269,0,0,0,0,0,0.2619,0.2631,0.2655,0.2664,0.2677,0.2691,0.2701,0.2707,0.2718,0.272,0.2721,0.2727,0.2742,0.2745,0.2756,0.2774,0.2788,0.2788,0.2793,0.2797,0.2807,0.2845,0.2854,0.2757,0.2756,0.2756,0,0,0.2615,0.263,0.2636,0.2662,0.2678,0.2697,0.2695,0.2716,0.273,0.272,0.2735,0.2745,0.2752,0.2775,0.2785,0.2771,0.2834,0.28,0.2803,0.2812,0.2849,0.2859,0.2867,0.2758,0.2758,0.2758,0,0,0.2614,0.2628,0.264,0.2661,0.2691,0.2703,0.2712,0.2734,0.2743,0.2764,0.2765,0.2787,0.2798,0.2813,0.2821,0.2861,0.2861,0.2862,0.2889,0.2926,0.2934,0.2941,0.2975,0.2985,0.286,0.286,0.286,0,0.2608,0.2623,0.2647,0.2667,0.2685,0.2707,0.2726,0.2743,0.2765,0.2781,0.2772,0.2816,0.2819,0.2859,0.2874,0.2872,0.2891,0.2863,0.2932,0.2939,0.2946,0.2979,0.299,0.2862,0.2861,0.2861,0.2861,0,0.2616,0.2633,0.2645,0.2676,0.27,0.2722,0.2754,0.2776,0.2789,0.2806,0.2849,0.2863,0.2889,0.2897,0.2897,0.2952,0.295,0.2936,0.2915,0.2958,0.299,0.3001,0.2864,0.2863,0.2863,0.2862,0,0,0.259,0.2639,0.2643,0.2656,0.2708,0.2722,0.2765,0.2806,0.2834,0.2859,0.29,0.2931,0.2943,0.2955,0.2963,0.2996,0.3063,0.2989,0.2991,0.302,0.3149,0.3144,0.3155,0.306,0.3062,0.3063,0.3152,0,0.2588,0.2617,0.2648,0.2675,0.2694,0.2739,0.2773,0.2816,0.2857,0.2903,0.2938,0.2977,0.2963,0.2985,0.3017,0.3062,0.3093,0.3041,0.3106,0.3109,0.3095,0.3167,0.3109,0.3183,0.3163,0.3165,0.3166,0,0.2581,0.2605,0.2631,0.2675,0.2688,0.2707,0.2774,0.2812,0.2893,0.293,0.2985,0.3015,0.3082,0.3058,0.3147,0.3116,0.3136,0.3161,0.3164,0.3157,0.3123,0.3137,0.3204,0.3169,0.3182,0.3181,0.318,0,0.254,0.2587,0.2603,0.262,0.2678,0.2699,0.2735,0.2815,0.2862,0.2959,0.3013,0.3076,0.3133,0.3169,0.3224,0.3192,0.3324,0.3279,0.329,0.3289,0.3253,0.3246,0.3291,0.3336,0.3335,0.3335,0.3335,0,0.2522,0.253,0.2581,0.2588,0.2611,0.2669,0.2716,0.277,0.2869,0.2934,0.302,0.3091,0.3167,0.3248,0.3262,0.333,0.3353,0.3321,0.3322,0.3262,0.3255,0.3232,0.3199,0.3339,0.3338,0.3337,0.3337,0,0.2471,0.2505,0.2519,0.2573,0.259,0.2607,0.2695,0.2735,0.2846,0.2944,0.2982,0.313,0.3244,0.3316,0.3404,0.3394,0.336,0.345,0.3379,0.337,0.3319,0.3289,0.3128,0.3023,0.3473,0.3473,0.3474,0,0.2447,0.2452,0.2494,0.2504,0.2524,0.2568,0.2601,0.2705,0.2766,0.2958,0.3002,0.3165,0.3264,0.3418,0.3453,0.3506,0.3383,0.3463,0.3383,0.3337,0.3305,0.3088,0.2995,0.3348,0.3348,0.3347,0.3347,0,0.2404,0.2416,0.2429,0.2453,0.2474,0.2504,0.2567,0.2609,0.2748,0.2855,0.2998,0.3101,0.3293,0.3359,0.3464,0.347,0.331,0.3453,0.3427,0.3242,0.2986,0.288,0.3268,0.3343,0.3343,0.3343,0.3344,0.3344,0.2368,0.2364,0.2385,0.2397,0.2414,0.2427,0.2433,0.2523,0.261,0.2747,0.2904,0.3044,0.3251,0.3401,0.339,0.3389,0.3268,0.3326,0.3305,0.3096,0.2952,0.3335,0.3392,0.3393,0.3394,0.3394,0.3395,0,0.2329,0.2329,0.2334,0.2334,0.2316,0.2353,0.2396,0.24,0.2464,0.2646,0.277,0.2997,0.3119,0.3248,0.3363,0.3289,0.3055,0.321,0.2917,0.2841,0.324,0.3198,0.3189,0.3189,0.3189,0.3189,0.3189,0.3189,0.2311,0.2294,0.2289,0.2237,0.223,0.2189,0.219,0.2213,0.232,0.2453,0.2597,0.2743,0.3043,0.3266,0.3287,0.3208,0.2946,0.2805,0.2737,0.31,0.3108,0.3116,0.307,0.3035,0.3035,0.2209,0.2203,0.2199]},{"header":{"parameterUnit":"m.s-1","parameterCategory":2,"la1":30.2991,"la2":30.254,"lo1":-89.0895,"lo2":-89.0444,"dx":0.0017,"dy":0.0017,"nx":28,"ny":28,"refTime":"2023-01-02T15:00:00:Z","depth":"0","parameterNumber":3,"parameterNumberName":"V-component_of_CURRENTS"},"data":[0,0,0,0,0,0,0,0,0,0,0,0,0,0,0,0,0,0,0,0,0,0,0,0,0,0,0,0,0,0,0,0,0,0,0,0,0,0,0,0,0,0,0,0,0,0,0,0,0,0,0,0,0,0,0,0,0,0,0.0214,0.0213,0,0.0157,0.0157,0.0156,0.0116,0.0115,0.0115,0.0115,0.0032,0.003,0.0028,0,0,0,0,0,0,0,0,0,0,0,0,0,0.0253,0.0253,0.0214,0.0213,0.0213,0.0158,0.0157,0.0156,0.0116,0.0115,0.0115,0.0115,0.0033,0.003,0.0028,0,0,0,0,0,0,0,0,0,0,0,0,0,0.0219,0.0252,0.0214,0.0187,0.0184,0.0158,0.0157,0.0155,0.0116,0.0115,0.0115,0.0115,0.0033,0.003,0.0027,0.0014,0,0,0.0018,0.0017,0,0,0,0,0,0,0,0,0.0221,0.0217,0.0192,0.0189,0.0186,0.0145,0.014,0.0107,0.0116,0.014,0.0115,0.0115,0.0068,0.0062,0.0051,0.001,0.0007,0.0018,0.0016,0.0015,0.0014,0,0,0,0,0,0,0,0.0223,0.0219,0.019,0.0191,0.0188,0.0167,0.0162,0.0133,0.0105,0.0138,0.0135,0.0132,0.0066,0.0054,0.0048,0.0005,0.0018,0.0015,0.0013,0.0012,-0.0042,-0.0041,0,0,0,0,0,0,0.0235,0.0222,0.0192,0.0188,0.0205,0.0166,0.0161,0.0157,0.0106,0.0098,0.0132,0.013,0.0059,0.0052,0.0045,0.0046,0.0015,0.0012,0.001,-0.0042,-0.0042,-0.0041,0,0,0,0,0,0,0.0237,0.0233,0.0194,0.0205,0.0199,0.0166,0.0162,0.0156,0.0147,0.0102,0.0093,0.013,0.0059,0.005,0.0031,0.0042,0.001,0.0008,-0.0042,-0.0042,-0.0041,0.0035,0,0,0,0,0,0,0.0238,0.0234,0.0238,0.0206,0.0199,0.0188,0.0162,0.0155,0.0146,0.0143,0.0097,0.0089,0.0058,0.0036,0.0028,0.0037,0.0005,-0.0043,-0.0042,-0.0041,0.0032,0.0038,0.0044,0,0,0,0,0,0.0239,0.0249,0.0238,0.0235,0.0204,0.0188,0.0183,0.0157,0.0146,0.0147,0.0119,0.0091,0.0035,0.0034,0.0025,0.0033,-0.0043,-0.0042,-0.0042,0.003,0.0037,0.0044,0,0,0,0,0,0,0.0269,0.0245,0.0232,0.0234,0.0217,0.0182,0.0182,0.0164,0.0143,0.0141,0.0097,0.0087,0.0073,0.0043,0.0043,0.0019,-0.001,-0.001,0.0048,0.0054,0.006,0.0076,0.0003,0,0,0,0,0,0.0278,0.0278,0.0251,0.0253,0.0247,0.0216,0.0207,0.0191,0.0167,0.0157,0.0125,0.0093,0.0069,0.0055,0.0026,0.0015,-0.0018,0.0013,0.0019,0.0024,0.0031,-0.0007,-0.0004,-0.0038,-0.0038,-0.0038,0,0,0.029,0.0277,0.0277,0.0259,0.0243,0.0245,0.021,0.0204,0.0207,0.0152,0.0146,0.0111,0.007,0.0058,0.0049,0.0035,0.0016,0.0025,0.003,0.0034,-0.0005,-0.0002,0.0001,-0.0037,-0.0038,-0.0038,0,0,0.032,0.0304,0.0316,0.0306,0.029,0.0271,0.0274,0.0245,0.0233,0.0222,0.0185,0.016,0.012,0.0094,0.0076,0.0095,0.0048,0.0085,0.0128,0.0092,0.0095,0.0097,0.0062,0.006,0.0089,0.0089,0.0089,0,0.0337,0.0347,0.0318,0.0329,0.0328,0.0289,0.0305,0.029,0.0259,0.0254,0.0231,0.0176,0.0137,0.0127,0.0132,0.0109,0.0082,0.0108,0.0101,0.0102,0.0102,0.0066,0.0063,0.0093,0.0092,0.0092,0.0092,0,0.0375,0.0385,0.0393,0.0393,0.0388,0.0395,0.0372,0.0368,0.0345,0.0323,0.0304,0.0249,0.0218,0.0199,0.017,0.0161,0.0138,0.0113,0.0087,0.0111,0.007,0.0066,0.0098,0.0097,0.0096,0.0095,0,0,0.041,0.0419,0.0422,0.0438,0.0424,0.0427,0.0436,0.043,0.0444,0.0398,0.0406,0.035,0.0314,0.0291,0.0248,0.0214,0.0189,0.0172,0.0169,0.0144,0.0112,0.0113,0.0107,0.0165,0.0165,0.0165,0.0083,0,0.045,0.049,0.0478,0.0517,0.0537,0.0511,0.0525,0.0514,0.0494,0.049,0.043,0.0413,0.0352,0.0339,0.0297,0.0221,0.0181,0.0214,0.0086,0.0083,0.0086,0.0103,0.0147,0.008,0.0078,0.0078,0.0077,0,0.0494,0.0515,0.0559,0.0588,0.0594,0.0607,0.0623,0.0635,0.0616,0.0599,0.0566,0.0515,0.0464,0.0405,0.0285,0.0311,0.0219,0.0151,0.0145,0.0117,0.0075,0.0054,0.0071,-0.0045,0.0069,0.007,0.0071,0,0.0538,0.0575,0.0613,0.0621,0.0642,0.0658,0.0671,0.0666,0.0694,0.067,0.0681,0.0599,0.0574,0.045,0.031,0.0295,0.0177,0.0133,0.0044,0.0042,0.004,0.004,-0.0064,0.0041,0.0041,0.0041,0.0041,0,0.0586,0.062,0.0638,0.0661,0.0718,0.071,0.0768,0.0768,0.0784,0.0836,0.0745,0.0764,0.0584,0.0497,0.0346,0.0196,0.02,0.0057,0.0025,0.0068,0.0071,-0.0064,-0.0156,0.0038,0.0039,0.0039,0.004,0,0.0627,0.0638,0.0691,0.0724,0.0742,0.0783,0.0847,0.089,0.0893,0.0959,0.0957,0.0889,0.0779,0.0595,0.04,0.0261,0.0025,0.004,0.0106,0.0084,-0.0113,-0.0202,-0.0356,-0.0439,-0.0077,-0.0077,-0.0078,0,0.0651,0.0682,0.0743,0.0784,0.08,0.0864,0.0914,0.0943,0.0999,0.1049,0.1088,0.1006,0.0982,0.0699,0.043,0.0171,0.0019,0.0027,-0.0002,-0.0109,-0.0234,-0.0287,-0.0351,0.0018,0.0019,0.0019,0.0019,0,0.0701,0.0719,0.0761,0.0848,0.0907,0.0989,0.1066,0.1132,0.1186,0.1246,0.1313,0.1302,0.1053,0.0834,0.0479,0.028,-0.0054,0.0026,-0.0104,-0.018,-0.0227,-0.0325,0.0052,0.0023,0.0022,0.0022,0.0022,0.0022,0.0738,0.0778,0.0837,0.0919,0.0996,0.1105,0.1193,0.1284,0.1404,0.1527,0.1499,0.1549,0.1229,0.0761,0.0462,-0.0007,-0.0051,-0.0136,-0.024,-0.0286,-0.0352,0.0039,-0.0014,-0.0014,-0.0015,-0.0015,-0.0016,0,0.0784,0.083,0.0907,0.1009,0.1102,0.1138,0.1288,0.139,0.1548,0.1685,0.176,0.17,0.1267,0.0813,0.0171,-0.0181,-0.0332,-0.0377,-0.0445,-0.0506,-0.0163,-0.0141,-0.0198,-0.0198,-0.0198,-0.0198,-0.0198,-0.0198,0.081,0.0885,0.0923,0.1079,0.1157,0.1302,0.14,0.1556,0.1699,0.1902,0.2008,0.2056,0.1807,0.0603,-0.0203,-0.0433,-0.0687,-0.0726,-0.0889,-0.0645,-0.063,-0.0615,-0.0613,-0.0769,-0.077,-0.1154,-0.1158,-0.1161]}],[{"header":{"parameterUnit":"m.s-1","parameterCategory":2,"la1":30.2991,"la2":30.254,"lo1":-89.0895,"lo2":-89.0444,"dx":0.0017,"dy":0.0017,"nx":28,"ny":28,"refTime":"2023-01-02T15:00:00:Z","depth":"2","parameterNumber":2,"parameterNumberName":"U-component_of_CURRENTS"},"data":[0,0,0,0,0,0,0,0,0,0,0,0,0,0,0,0,0,0,0,0,0,0,0,0,0,0,0,0,0,0,0,0,0,0,0,0,0,0,0,0,0,0,0,0,0,0,0,0,0,0,0,0,0,0,0,0,0,0,0.2627,0.2627,0,0.2653,0.2653,0.2653,0.2648,0.2648,0.2647,0.2647,0.2652,0.2653,0.2653,0,0,0,0,0,0,0,0,0,0,0,0,0,0.2581,0.2582,0.2627,0.2627,0.2628,0.2653,0.2653,0.2653,0.2648,0.2648,0.2647,0.2647,0.2652,0.2653,0.2653,0,0,0,0,0,0,0,0,0,0,0,0,0,0.2601,0.2582,0.2627,0.263,0.2631,0.2653,0.2653,0.2653,0.2648,0.2648,0.2647,0.2647,0.2652,0.2653,0.2653,0.2664,0,0,0.2655,0.2655,0,0,0,0,0,0,0,0,0.26,0.2602,0.2629,0.263,0.2631,0.2649,0.2639,0.2656,0.2648,0.2639,0.2647,0.2647,0.2651,0.2652,0.2654,0.2664,0.2664,0.2655,0.2655,0.2655,0.2656,0,0,0,0,0,0,0,0.2598,0.2601,0.2634,0.263,0.2631,0.2634,0.2636,0.2642,0.2644,0.264,0.264,0.2647,0.2651,0.2654,0.2654,0.2664,0.2655,0.2655,0.2656,0.2656,0.2713,0.2714,0,0,0,0,0,0,0.26,0.26,0.2634,0.2636,0.2617,0.2635,0.2637,0.2641,0.2645,0.2646,0.2647,0.2647,0.2653,0.2654,0.2654,0.2689,0.2655,0.2656,0.2656,0.2712,0.2714,0.2715,0,0,0,0,0,0,0.2599,0.2603,0.2633,0.262,0.2625,0.2636,0.2641,0.2642,0.265,0.2651,0.2651,0.2655,0.2653,0.2654,0.267,0.2689,0.2656,0.2657,0.2711,0.2713,0.2714,0.2745,0,0,0,0,0,0,0.2598,0.2602,0.2606,0.2621,0.2626,0.2652,0.2642,0.2643,0.2656,0.2655,0.2658,0.2657,0.2652,0.2669,0.2671,0.2689,0.2657,0.2709,0.2712,0.2714,0.2743,0.2748,0.2752,0,0,0,0,0,0.2596,0.2602,0.2606,0.261,0.263,0.2653,0.2656,0.2661,0.2657,0.2665,0.2668,0.2658,0.2685,0.2671,0.2672,0.2691,0.2708,0.2711,0.2713,0.2741,0.2747,0.2752,0,0,0,0,0,0,0.258,0.2603,0.2607,0.2618,0.2638,0.2653,0.2663,0.2666,0.2676,0.2676,0.267,0.2671,0.2695,0.2691,0.2676,0.2716,0.2696,0.2699,0.2716,0.2722,0.2727,0.2736,0.2658,0,0,0,0,0,0.258,0.2593,0.2615,0.2625,0.2637,0.2652,0.2661,0.2668,0.268,0.2683,0.2685,0.2692,0.2708,0.2712,0.2723,0.2741,0.2754,0.2756,0.276,0.2764,0.2775,0.2811,0.282,0.2724,0.2724,0.2724,0,0,0.2577,0.2592,0.2598,0.2624,0.2639,0.2657,0.2656,0.2678,0.2692,0.2683,0.27,0.271,0.2718,0.2742,0.2752,0.2738,0.28,0.2768,0.2771,0.2779,0.2815,0.2824,0.2832,0.2726,0.2725,0.2725,0,0,0.2578,0.2593,0.2604,0.2624,0.2654,0.2666,0.2674,0.2696,0.2707,0.2728,0.273,0.2754,0.2765,0.278,0.2788,0.2827,0.2827,0.2829,0.2857,0.2892,0.29,0.2907,0.2939,0.2949,0.2827,0.2827,0.2828,0,0.2573,0.2588,0.2611,0.263,0.2648,0.267,0.2688,0.2706,0.2729,0.2745,0.2738,0.2782,0.2786,0.2825,0.284,0.2838,0.2857,0.2831,0.2898,0.2905,0.2912,0.2943,0.2954,0.2829,0.2829,0.2829,0.2829,0,0.2581,0.2598,0.261,0.264,0.2664,0.2685,0.2717,0.274,0.2754,0.2771,0.2815,0.283,0.2855,0.2864,0.2864,0.2918,0.2916,0.2902,0.2881,0.2924,0.2954,0.2964,0.2832,0.2831,0.2831,0.283,0,0,0.2557,0.2605,0.2609,0.2622,0.2672,0.2686,0.2729,0.2768,0.2796,0.2823,0.2864,0.2896,0.2909,0.2921,0.2929,0.2961,0.3027,0.2956,0.2956,0.2984,0.311,0.3097,0.3107,0.3024,0.3026,0.3028,0.3112,0,0.2556,0.2585,0.2615,0.2641,0.266,0.2704,0.2737,0.2779,0.282,0.2866,0.2901,0.2941,0.2929,0.2952,0.2983,0.3025,0.3056,0.3006,0.3068,0.307,0.305,0.3119,0.2859,0.2911,0.3122,0.3124,0.3125,0,0.255,0.2573,0.2599,0.2642,0.2655,0.2674,0.2739,0.2776,0.2856,0.2893,0.2948,0.2978,0.3044,0.3022,0.3109,0.3079,0.3099,0.3122,0.3125,0.311,0.3076,0.2903,0.2922,0.3142,0.3141,0.314,0.3138,0,0.2511,0.2556,0.2573,0.2589,0.2646,0.2668,0.2703,0.2781,0.2827,0.2922,0.2976,0.3038,0.3095,0.313,0.3183,0.3152,0.3278,0.3235,0.3239,0.3237,0.3028,0.3005,0.329,0.329,0.329,0.3289,0.3289,0,0.2493,0.2502,0.2552,0.2559,0.2584,0.2639,0.2687,0.274,0.2836,0.2899,0.2984,0.3052,0.3128,0.3205,0.3219,0.3279,0.3306,0.3268,0.3268,0.3033,0.3011,0.3214,0.3204,0.3292,0.3292,0.3291,0.3291,0,0.2445,0.2478,0.2493,0.2546,0.2563,0.2581,0.2668,0.2706,0.2815,0.291,0.2948,0.309,0.3198,0.3268,0.3352,0.3339,0.3384,0.3389,0.3116,0.3084,0.3305,0.3296,0.3401,0.3401,0.3401,0.3402,0.3402,0,0.2421,0.2426,0.2469,0.2479,0.2501,0.2545,0.2577,0.2679,0.2737,0.2922,0.2963,0.312,0.3208,0.3351,0.3353,0.3394,0.3427,0.3178,0.3072,0.3332,0.3322,0.3312,0.3302,0.28,0.2795,0.2791,0.2788,0,0.2379,0.2392,0.2406,0.2431,0.2452,0.2481,0.2543,0.2583,0.2718,0.2817,0.295,0.3042,0.3195,0.3142,0.3226,0.3199,0.3151,0.3105,0.3446,0.2828,0.2777,0.2764,0.2771,0.2754,0.2758,0.276,0.2762,0.2763,0.2344,0.2341,0.2363,0.2375,0.2393,0.2404,0.2409,0.2491,0.2569,0.2675,0.2828,0.2889,0.2949,0.2957,0.2879,0.2822,0.3038,0.2891,0.2897,0.2909,0.284,0.2794,0.2762,0.2765,0.2768,0.277,0.2772,0,0.2303,0.2306,0.2312,0.2312,0.2291,0.2334,0.2371,0.2357,0.2405,0.2521,0.2613,0.2468,0.2467,0.2513,0.2388,0.2415,0.2322,0.2305,0.2149,0.2189,0.2223,0.2112,0.1843,0.184,0.1837,0.1834,0,0,0.2284,0.2265,0.226,0.2207,0.2206,0.2161,0.216,0.2147,0.2194,0.2188,0.2202,0.2385,0.2489,0.2143,0.2104,0.1953,0.204,0.187,0.2629,0.2489,0.2518,0.2594,0.2475,0,0,0,0,0]},{"header":{"parameterUnit":"m.s-1","parameterCategory":2,"la1":30.2991,"la2":30.254,"lo1":-89.0895,"lo2":-89.0444,"dx":0.0017,"dy":0.0017,"nx":28,"ny":28,"refTime":"2023-01-02T15:00:00:Z","depth":"2","parameterNumber":3,"parameterNumberName":"V-component_of_CURRENTS"},"data":[0,0,0,0,0,0,0,0,0,0,0,0,0,0,0,0,0,0,0,0,0,0,0,0,0,0,0,0,0,0,0,0,0,0,0,0,0,0,0,0,0,0,0,0,0,0,0,0,0,0,0,0,0,0,0,0,0,0,0.0134,0.0134,0,0.0078,0.0078,0.0077,0.0039,0.0038,0.0038,0.0038,-0.0043,-0.0045,-0.0047,0,0,0,0,0,0,0,0,0,0,0,0,0,0.0174,0.0174,0.0134,0.0134,0.0133,0.0078,0.0077,0.0077,0.0039,0.0038,0.0038,0.0038,-0.0043,-0.0045,-0.0047,0,0,0,0,0,0,0,0,0,0,0,0,0,0.014,0.0174,0.0134,0.0109,0.0106,0.0079,0.0077,0.0076,0.0039,0.0038,0.0038,0.0038,-0.0042,-0.0045,-0.0048,-0.0063,0,0,-0.0057,-0.0058,0,0,0,0,0,0,0,0,0.0142,0.0139,0.0113,0.011,0.0107,0.0067,0.0062,0.0029,0.0039,0.0063,0.0038,0.0038,-0.0008,-0.0014,-0.0026,-0.0067,-0.007,-0.0057,-0.0059,-0.0061,-0.0061,0,0,0,0,0,0,0,0.0145,0.0141,0.011,0.0113,0.0109,0.0089,0.0084,0.0055,0.0028,0.006,0.0058,0.0054,-0.001,-0.0022,-0.0028,-0.0071,-0.0057,-0.006,-0.0062,-0.0063,-0.0118,-0.0118,0,0,0,0,0,0,0.0157,0.0143,0.0112,0.0109,0.0126,0.0088,0.0083,0.0079,0.0028,0.0021,0.0055,0.0053,-0.0017,-0.0024,-0.0031,-0.003,-0.0061,-0.0063,-0.0065,-0.0118,-0.0118,-0.0117,0,0,0,0,0,0,0.0158,0.0154,0.0115,0.0126,0.012,0.0088,0.0084,0.0078,0.007,0.0024,0.0016,0.0054,-0.0018,-0.0026,-0.0045,-0.0034,-0.0065,-0.0068,-0.0119,-0.0118,-0.0118,-0.0042,0,0,0,0,0,0,0.0159,0.0155,0.0159,0.0127,0.012,0.0108,0.0084,0.0077,0.0068,0.0066,0.0021,0.0013,-0.0018,-0.004,-0.0048,-0.0039,-0.007,-0.0119,-0.0118,-0.0118,-0.0045,-0.0039,-0.0033,0,0,0,0,0,0.0161,0.017,0.016,0.0156,0.0125,0.0109,0.0103,0.0079,0.0069,0.007,0.0043,0.0015,-0.0041,-0.0042,-0.0051,-0.0043,-0.012,-0.0119,-0.0118,-0.0047,-0.004,-0.0033,0,0,0,0,0,0,0.0191,0.0166,0.0154,0.0155,0.0138,0.0103,0.0103,0.0086,0.0065,0.0064,0.002,0.001,-0.0003,-0.0033,-0.0033,-0.0057,-0.0086,-0.0086,-0.0029,-0.0022,-0.0017,-0.0,-0.0073,0,0,0,0,0,0.02,0.0199,0.0171,0.0174,0.0167,0.0137,0.0128,0.0113,0.0089,0.008,0.0048,0.0016,-0.0008,-0.0022,-0.005,-0.0062,-0.0095,-0.0064,-0.0058,-0.0053,-0.0047,-0.0084,-0.008,-0.0115,-0.0115,-0.0115,0,0,0.0212,0.0199,0.0199,0.018,0.0164,0.0166,0.0131,0.0126,0.0129,0.0074,0.0069,0.0035,-0.0007,-0.0019,-0.0028,-0.0042,-0.0061,-0.0052,-0.0047,-0.0044,-0.0082,-0.0079,-0.0076,-0.0114,-0.0114,-0.0114,0,0,0.0242,0.0226,0.0237,0.0227,0.0211,0.0192,0.0195,0.0166,0.0155,0.0143,0.0108,0.0083,0.0043,0.0017,-0.0002,0.0017,-0.0029,0.0007,0.0049,0.0014,0.0017,0.0019,-0.0015,-0.0017,0.001,0.0011,0.0011,0,0.0259,0.0268,0.0239,0.0249,0.0248,0.021,0.0225,0.021,0.0179,0.0175,0.0153,0.0099,0.006,0.0048,0.0053,0.003,0.0004,0.003,0.0022,0.0023,0.0024,-0.0011,-0.0014,0.0014,0.0014,0.0013,0.0013,0,0.0295,0.0305,0.0312,0.0312,0.0306,0.0313,0.0289,0.0286,0.0264,0.0242,0.0224,0.017,0.0139,0.012,0.0091,0.0082,0.006,0.0035,0.0009,0.0032,-0.0007,-0.0011,0.002,0.0018,0.0017,0.0016,0,0,0.033,0.0337,0.0341,0.0356,0.0342,0.0344,0.0352,0.0346,0.0359,0.0315,0.0322,0.0267,0.0233,0.021,0.0167,0.0133,0.011,0.0093,0.009,0.0067,0.0035,0.0033,0.0027,0.0087,0.0086,0.0086,0.0007,0,0.0369,0.0407,0.0395,0.0433,0.0451,0.0425,0.0438,0.0427,0.0407,0.0404,0.0345,0.0329,0.0269,0.0258,0.0216,0.0141,0.0102,0.0134,0.0009,0.0006,0.0007,0.0024,0.0032,-0.0036,0.0002,0.0002,0.0001,0,0.0412,0.0432,0.0474,0.0501,0.0506,0.0519,0.0535,0.0546,0.0526,0.051,0.0479,0.0428,0.0379,0.0322,0.0204,0.023,0.0141,0.0073,0.0068,0.0038,-0.0004,-0.0055,-0.0046,-0.0007,-0.0006,-0.0006,-0.0005,0,0.0456,0.049,0.0527,0.0534,0.0553,0.057,0.0582,0.0577,0.0603,0.058,0.0591,0.0511,0.0486,0.0366,0.0229,0.0215,0.0098,0.0055,-0.0034,-0.0035,-0.0067,-0.007,-0.0034,-0.0034,-0.0034,-0.0034,-0.0034,0,0.0502,0.0535,0.0552,0.0574,0.063,0.0621,0.0679,0.0678,0.0693,0.0742,0.0654,0.067,0.0497,0.041,0.0263,0.0115,0.012,-0.002,-0.0052,-0.004,-0.004,-0.0048,-0.0048,-0.0037,-0.0036,-0.0036,-0.0035,0,0.0543,0.0553,0.0605,0.0636,0.0654,0.0695,0.0757,0.0797,0.08,0.0863,0.0862,0.0792,0.0682,0.0504,0.0313,0.0177,0.002,-0.0039,-0.0009,-0.0035,-0.0104,-0.0099,-0.0153,-0.0154,-0.0154,-0.0155,-0.0155,0,0.0566,0.0596,0.0656,0.0696,0.0712,0.0775,0.0823,0.085,0.0904,0.0949,0.0985,0.0902,0.0871,0.0592,0.0325,0.0072,0.0033,-0.0091,-0.0123,-0.0088,-0.0114,-0.0109,-0.0104,-0.0143,-0.0143,-0.0143,-0.0144,0,0.0614,0.0633,0.0674,0.0759,0.0816,0.0896,0.0969,0.1032,0.1082,0.1136,0.1194,0.1176,0.0924,0.0675,0.0328,0.0145,-0.0051,-0.0103,-0.0077,-0.0102,-0.0082,-0.0106,-0.0101,-0.0145,-0.0145,-0.0145,-0.0145,-0.0145,0.065,0.0688,0.0747,0.0827,0.0903,0.1006,0.1089,0.1169,0.1278,0.1364,0.1344,0.1315,0.1034,0.059,0.0284,-0.0056,-0.0042,-0.0174,-0.0173,-0.0171,-0.0144,-0.0124,-0.0191,-0.0191,-0.0191,-0.0191,-0.0191,0,0.069,0.0739,0.0814,0.0912,0.0998,0.104,0.118,0.1251,0.1386,0.1456,0.1501,0.1231,0.0962,0.0631,0.0139,-0.0142,-0.018,-0.0245,-0.0229,-0.0225,-0.0222,-0.0197,-0.0259,-0.026,-0.0261,-0.0261,0,0,0.0713,0.0785,0.0821,0.097,0.105,0.1181,0.1272,0.1369,0.1443,0.1505,0.1492,0.1448,0.1066,0.0698,0.0308,0.0027,-0.0038,-0.004,0.0043,0.0112,0.0119,-0.0154,-0.0107,0,0,0,0,0]}],[{"header":{"parameterUnit":"m.s-1","parameterCategory":2,"la1":30.2991,"la2":30.254,"lo1":-89.0895,"lo2":-89.0444,"dx":0.0017,"dy":0.0017,"nx":28,"ny":28,"refTime":"2023-01-02T15:00:00:Z","depth":"4","parameterNumber":2,"parameterNumberName":"U-component_of_CURRENTS"},"data":[0,0,0,0,0,0,0,0,0,0,0,0,0,0,0,0,0,0,0,0,0,0,0,0,0,0,0,0,0,0,0,0,0,0,0,0,0,0,0,0,0,0,0,0,0,0,0,0,0,0,0,0,0,0,0,0,0,0,0.1717,0.1718,0,0.1781,0.1781,0.1782,0.1836,0.1837,0.1838,0.1838,0.192,0.1921,0.1923,0,0,0,0,0,0,0,0,0,0,0,0,0,0.1635,0.1636,0.1717,0.1718,0.1719,0.1781,0.1781,0.1782,0.1836,0.1837,0.1838,0.1839,0.192,0.1921,0.1923,0,0,0,0,0,0,0,0,0,0,0,0,0,0.168,0.1636,0.1717,0.1755,0.1759,0.1781,0.1782,0.1782,0.1836,0.1837,0.1838,0.1839,0.1919,0.1921,0.1923,0.1914,0,0,0.193,0.1931,0,0,0,0,0,0,0,0,0.1677,0.1682,0.1748,0.1752,0.1757,0.1803,0.1783,0.1828,0.1836,0.1805,0.1838,0.184,0.1883,0.1888,0.1895,0.1917,0.1921,0.193,0.1931,0.1932,0.1933,0,0,0,0,0,0,0,0.1674,0.168,0.174,0.1749,0.1754,0.1766,0.1774,0.1791,0.1835,0.1807,0.1812,0.1822,0.1885,0.1892,0.1897,0.1922,0.193,0.1932,0.1933,0.1934,0.2048,0.205,0,0,0,0,0,0,0.1669,0.1677,0.1738,0.1742,0.1721,0.1767,0.1775,0.1786,0.1835,0.1844,0.1821,0.1824,0.1888,0.1895,0.19,0.199,0.1932,0.1934,0.1936,0.2046,0.2049,0.205,0,0,0,0,0,0,0.1667,0.1674,0.1736,0.1713,0.1722,0.1767,0.1779,0.1786,0.1831,0.1845,0.1855,0.1862,0.1889,0.1897,0.1951,0.199,0.1935,0.1937,0.2044,0.2047,0.2049,0.2106,0,0,0,0,0,0,0.1664,0.1673,0.1696,0.1712,0.1723,0.1773,0.1778,0.1787,0.1834,0.184,0.1883,0.1889,0.1891,0.1948,0.1953,0.1992,0.1939,0.2042,0.2046,0.2049,0.2102,0.2111,0.2118,0,0,0,0,0,0.1661,0.1682,0.1697,0.1705,0.1748,0.1775,0.1782,0.1816,0.1835,0.186,0.1893,0.189,0.1972,0.1951,0.1957,0.1997,0.2041,0.2045,0.2048,0.2099,0.2109,0.2117,0,0,0,0,0,0,0.1661,0.169,0.1706,0.1737,0.1767,0.1785,0.1817,0.1836,0.188,0.1899,0.191,0.1919,0.1981,0.1981,0.1957,0.204,0.2007,0.2012,0.2043,0.2053,0.206,0.2062,0.1941,0,0,0,0,0,0.1669,0.1697,0.1722,0.1752,0.177,0.18,0.1823,0.1847,0.1878,0.1901,0.193,0.1963,0.1994,0.2018,0.2042,0.2086,0.2088,0.2117,0.2124,0.2131,0.2137,0.2173,0.2185,0.2063,0.2063,0.2063,0,0,0.1679,0.17,0.1718,0.1756,0.1783,0.1811,0.1818,0.1864,0.1897,0.1902,0.1969,0.1994,0.2012,0.2064,0.2092,0.2074,0.2168,0.2136,0.2141,0.2144,0.2179,0.219,0.2201,0.2066,0.2065,0.2065,0,0,0.1696,0.1732,0.1756,0.1783,0.1831,0.1847,0.1868,0.1909,0.1944,0.1999,0.2015,0.2065,0.2112,0.2132,0.2145,0.221,0.2208,0.2226,0.2268,0.2303,0.2313,0.2322,0.2344,0.2355,0.2229,0.2229,0.2229,0,0.1711,0.174,0.1769,0.1797,0.1826,0.1866,0.1897,0.1932,0.1989,0.2021,0.2033,0.2122,0.2141,0.2196,0.2225,0.2227,0.2245,0.2229,0.2313,0.2321,0.233,0.235,0.2361,0.2232,0.2232,0.2232,0.2231,0,0.173,0.177,0.179,0.1837,0.1872,0.191,0.1953,0.2004,0.2051,0.2081,0.2164,0.2196,0.2246,0.2265,0.2268,0.234,0.2334,0.2317,0.2286,0.2345,0.2363,0.2373,0.2237,0.2236,0.2235,0.2234,0,0,0.1716,0.1789,0.18,0.183,0.19,0.1923,0.1991,0.205,0.21,0.2166,0.2229,0.2294,0.2323,0.2341,0.2358,0.2395,0.247,0.2392,0.2392,0.2409,0.2552,0.2396,0.2392,0.2476,0.2478,0.2479,0.2542,0,0.1726,0.1779,0.1817,0.1878,0.1907,0.1969,0.2022,0.2087,0.2152,0.2223,0.2276,0.2345,0.2347,0.239,0.2428,0.2466,0.25,0.2455,0.2497,0.2498,0.2348,0.2399,0.2486,0.255,0.2552,0.2554,0.2555,0,0.1723,0.1763,0.1821,0.1898,0.1918,0.1965,0.2062,0.2117,0.2218,0.2274,0.2353,0.2397,0.248,0.2467,0.2558,0.2535,0.2553,0.257,0.2572,0.2412,0.236,0.2479,0.2573,0.2572,0.257,0.2569,0.2568,0,0.1678,0.176,0.1809,0.1837,0.1929,0.1979,0.2038,0.214,0.2197,0.2321,0.2382,0.2469,0.2538,0.2577,0.2624,0.2606,0.2708,0.2676,0.2549,0.2538,0.2634,0.2624,0.273,0.273,0.273,0.273,0.273,0,0.1652,0.1694,0.1798,0.1822,0.1887,0.1966,0.2051,0.2124,0.2238,0.2303,0.2412,0.247,0.2576,0.264,0.2654,0.2633,0.2732,0.2563,0.2545,0.2657,0.2649,0.2641,0.263,0.2732,0.2732,0.2731,0.2731,0,0.1587,0.1657,0.1716,0.1827,0.1866,0.1917,0.2048,0.21,0.223,0.2324,0.2371,0.2506,0.2585,0.2659,0.2735,0.2661,0.266,0.2626,0.2754,0.2741,0.2458,0.245,0.2477,0.2472,0.2468,0.2464,0.2461,0,0.1553,0.158,0.1705,0.1743,0.18,0.1892,0.1947,0.2082,0.2137,0.2316,0.2341,0.2479,0.2549,0.2529,0.2616,0.2627,0.2598,0.2575,0.2498,0.2453,0.2434,0.2432,0.2429,0.2454,0.2453,0.2452,0.2451,0,0.1488,0.155,0.1599,0.168,0.1748,0.1808,0.1903,0.1927,0.2076,0.2213,0.2257,0.2296,0.2382,0.2426,0.2463,0.2462,0.2573,0.253,0.2538,0.2466,0.2426,0.2411,0.2413,0.2437,0.2439,0.244,0.2441,0,0.1446,0.1465,0.1542,0.1597,0.1675,0.1698,0.176,0.1818,0.1885,0.2072,0.208,0.2222,0.2354,0.2341,0.237,0.2365,0.2321,0.2231,0.2253,0.227,0.2173,0.209,0.1987,0,0,0,0,0,0.1396,0.1405,0.1451,0.1497,0.1566,0.1612,0.1715,0.1779,0.1919,0.1896,0.1981,0.2043,0.2087,0.2159,0.2113,0.2284,0.2336,0.2219,0.2246,0.2356,0.2373,0.2276,0,0,0,0,0,0,0.1362,0.1405,0.1414,0.14,0.1413,0.1472,0.1531,0.1626,0.1619,0.1771,0.1806,0.192,0.1997,0.2097,0.2076,0.2098,0.2071,0.2309,0.2303,0.2346,0.2362,0.2375,0.2282,0,0,0,0,0]},{"header":{"parameterUnit":"m.s-1","parameterCategory":2,"la1":30.2991,"la2":30.254,"lo1":-89.0895,"lo2":-89.0444,"dx":0.0017,"dy":0.0017,"nx":28,"ny":28,"refTime":"2023-01-02T15:00:00:Z","depth":"4","parameterNumber":3,"parameterNumberName":"V-component_of_CURRENTS"},"data":[0,0,0,0,0,0,0,0,0,0,0,0,0,0,0,0,0,0,0,0,0,0,0,0,0,0,0,0,0,0,0,0,0,0,0,0,0,0,0,0,0,0,0,0,0,0,0,0,0,0,0,0,0,0,0,0,0,0,0.001,0.001,0,-0.0029,-0.0029,-0.003,-0.006,-0.006,-0.006,-0.006,-0.0126,-0.0127,-0.0129,0,0,0,0,0,0,0,0,0,0,0,0,0,0.0038,0.0038,0.001,0.001,0.0009,-0.0029,-0.003,-0.003,-0.006,-0.006,-0.006,-0.006,-0.0125,-0.0127,-0.0129,0,0,0,0,0,0,0,0,0,0,0,0,0,0.0014,0.0038,0.001,-0.0009,-0.0011,-0.0029,-0.003,-0.003,-0.006,-0.006,-0.006,-0.006,-0.0125,-0.0127,-0.0129,-0.0139,0,0,-0.0137,-0.0138,0,0,0,0,0,0,0,0,0.0016,0.0013,-0.0006,-0.0008,-0.001,-0.0039,-0.0044,-0.0068,-0.006,-0.0043,-0.006,-0.006,-0.0098,-0.0103,-0.0111,-0.0142,-0.0145,-0.0137,-0.0138,-0.0139,-0.014,0,0,0,0,0,0,0,0.0017,0.0014,-0.0007,-0.0006,-0.0009,-0.0023,-0.0026,-0.0048,-0.007,-0.0044,-0.0046,-0.0048,-0.01,-0.0108,-0.0113,-0.0146,-0.0137,-0.0139,-0.014,-0.0141,-0.0186,-0.0186,0,0,0,0,0,0,0.0026,0.0016,-0.0006,-0.0008,0.0004,-0.0023,-0.0027,-0.003,-0.0069,-0.0075,-0.0048,-0.0049,-0.0104,-0.011,-0.0115,-0.0115,-0.0139,-0.0141,-0.0143,-0.0186,-0.0186,-0.0186,0,0,0,0,0,0,0.0027,0.0024,-0.0004,0.0004,-0.0,-0.0023,-0.0026,-0.0031,-0.0037,-0.0072,-0.0078,-0.0049,-0.0105,-0.0112,-0.0127,-0.0118,-0.0143,-0.0145,-0.0187,-0.0186,-0.0186,-0.0123,0,0,0,0,0,0,0.0028,0.0025,0.0028,0.0005,-0.0,-0.0008,-0.0026,-0.0031,-0.0037,-0.004,-0.0075,-0.0081,-0.0105,-0.0123,-0.0129,-0.0122,-0.0147,-0.0187,-0.0187,-0.0186,-0.0126,-0.0121,-0.0117,0,0,0,0,0,0.0029,0.0035,0.0029,0.0026,0.0004,-0.0008,-0.0011,-0.003,-0.0037,-0.0036,-0.0058,-0.008,-0.0125,-0.0125,-0.0132,-0.0125,-0.0187,-0.0187,-0.0186,-0.0128,-0.0122,-0.0117,0,0,0,0,0,0,0.005,0.0032,0.0024,0.0025,0.0013,-0.0012,-0.0011,-0.0024,-0.0041,-0.0041,-0.0076,-0.0083,-0.0094,-0.0119,-0.0118,-0.0138,-0.016,-0.0161,-0.0113,-0.0108,-0.0104,-0.009,-0.0149,0,0,0,0,0,0.0057,0.0057,0.0037,0.0039,0.0035,0.0013,0.0007,-0.0004,-0.0022,-0.003,-0.0054,-0.0079,-0.0099,-0.0109,-0.0133,-0.0141,-0.0167,-0.0143,-0.0139,-0.0134,-0.0129,-0.0158,-0.0156,-0.0184,-0.0184,-0.0184,0,0,0.0067,0.0057,0.0057,0.0044,0.0033,0.0035,0.0009,0.0005,0.0009,-0.0034,-0.0037,-0.0065,-0.0098,-0.0107,-0.0115,-0.0125,-0.014,-0.0134,-0.013,-0.0126,-0.0157,-0.0155,-0.0152,-0.0184,-0.0184,-0.0184,0,0,0.0088,0.0078,0.0085,0.0079,0.0068,0.0055,0.0057,0.0036,0.0029,0.0021,-0.0008,-0.0027,-0.0059,-0.0079,-0.0093,-0.0079,-0.0115,-0.0088,-0.0052,-0.0081,-0.0079,-0.0077,-0.0102,-0.0103,-0.0085,-0.0084,-0.0084,0,0.0101,0.0107,0.0087,0.0094,0.0096,0.0069,0.0081,0.007,0.0047,0.0046,0.0028,-0.0013,-0.0045,-0.0053,-0.0049,-0.0068,-0.0089,-0.0068,-0.0074,-0.0073,-0.0072,-0.0099,-0.0101,-0.0081,-0.0082,-0.0082,-0.0082,0,0.0126,0.0135,0.014,0.0141,0.014,0.0146,0.013,0.0129,0.0114,0.0099,0.0086,0.0043,0.002,0.0005,-0.0018,-0.0025,-0.0043,-0.0064,-0.0084,-0.0065,-0.0095,-0.0098,-0.0077,-0.0078,-0.0079,-0.008,0,0,0.0146,0.0156,0.0159,0.0173,0.0167,0.017,0.018,0.0178,0.0191,0.0158,0.0166,0.0122,0.0098,0.0079,0.0045,0.0018,0.0001,-0.0015,-0.0018,-0.0033,-0.0058,-0.0066,-0.0071,-0.002,-0.002,-0.002,-0.0078,0,0.0173,0.0202,0.0198,0.0231,0.0245,0.0232,0.0246,0.0242,0.023,0.0231,0.0185,0.0176,0.0127,0.012,0.0086,0.0024,-0.0005,0.0019,-0.008,-0.0083,-0.0087,-0.0074,-0.0021,-0.0081,-0.0082,-0.0082,-0.0083,0,0.0199,0.0217,0.0252,0.0282,0.0288,0.0304,0.0325,0.0337,0.0328,0.0318,0.0296,0.0259,0.022,0.0175,0.0079,0.0098,0.0028,-0.0027,-0.0031,-0.0062,-0.0097,-0.0107,-0.0089,-0.0089,-0.0088,-0.0088,-0.0087,0,0.0224,0.0257,0.0289,0.0297,0.0322,0.0342,0.036,0.0364,0.0388,0.0378,0.0388,0.0327,0.0308,0.0212,0.0098,0.0089,-0.0011,-0.004,-0.0114,-0.0116,-0.0119,-0.0121,-0.0109,-0.0109,-0.0109,-0.0109,-0.0109,0,0.025,0.0279,0.0306,0.0325,0.0376,0.0381,0.0434,0.0441,0.0462,0.0499,0.044,0.0446,0.0317,0.0243,0.0126,0.0002,0.0007,-0.0103,-0.013,-0.0092,-0.0089,-0.0122,-0.0122,-0.0111,-0.0111,-0.011,-0.011,0,0.0268,0.0285,0.0329,0.0369,0.039,0.0428,0.0495,0.053,0.0544,0.0592,0.0594,0.0539,0.0442,0.0304,0.015,0.005,-0.0079,-0.0127,-0.0066,-0.0088,-0.0172,-0.0169,-0.0212,-0.0213,-0.0213,-0.0214,-0.0214,0,0.0276,0.03,0.0365,0.0401,0.0423,0.0485,0.0531,0.0569,0.061,0.0648,0.067,0.0602,0.0544,0.0333,0.0171,-0.0046,-0.0086,-0.0154,-0.0175,-0.0161,-0.0182,-0.0178,-0.0174,-0.0215,-0.0216,-0.0216,-0.0216,0,0.0293,0.0318,0.0355,0.0433,0.0489,0.056,0.0628,0.0667,0.0718,0.0734,0.0738,0.0635,0.0528,0.0346,0.018,0.0018,-0.0112,-0.0162,-0.0162,-0.0182,-0.0165,-0.0185,-0.018,-0.0218,-0.0218,-0.0218,-0.0217,0,0.0306,0.0335,0.0389,0.0457,0.0535,0.0611,0.0649,0.0702,0.0749,0.0787,0.0786,0.0674,0.0612,0.038,0.0224,0.0068,0.0015,-0.0049,-0.0056,-0.0056,-0.0003,0.0042,0.0037,0,0,0,0,0,0.0314,0.0348,0.041,0.0486,0.0565,0.0613,0.0702,0.0734,0.0787,0.0801,0.0799,0.07,0.0491,0.0398,0.0241,0.0184,-0.0031,-0.001,-0.0114,-0.023,-0.0227,-0.0193,0,0,0,0,0,0,0.0318,0.0372,0.0404,0.0499,0.0553,0.0644,0.0704,0.0741,0.0748,0.078,0.0672,0.0643,0.0433,0.058,0.0232,0.0185,0.0093,-0.0102,-0.0106,-0.0231,-0.0229,-0.0227,-0.0191,0,0,0,0,0]}]]